| time (UTC) | temp F | wind direction | speed MPH | gust MPH | rain 1hr in | rain 24hr in | rain mn in | humidity % | barometer mb |
| 20260507103859 | 39 | 93 | 20.0 | 22.0 | 0.00 | 0.00 | 0.00 | 99 | 1018.1 |
| 20260507103356 | 39 | 103 | 18.0 | 21.0 | 0.00 | 0.00 | 0.00 | 99 | 1017.9 |
| 20260507102852 | 39 | 103 | 18.0 | 21.0 | 0.00 | 0.00 | 0.00 | 99 | 1017.9 |
| 20260507102348 | 38 | 139 | 15.0 | 16.0 | 0.00 | 0.00 | 0.00 | 99 | 1018.3 |
| 20260507101844 | 38 | 139 | 15.0 | 16.0 | 0.00 | 0.00 | 0.00 | 99 | 1018.3 |
| 20260507101344 | 38 | 129 | 16.0 | 17.0 | 0.00 | 0.00 | 0.00 | 99 | 1018.6 |
| 20260507100842 | 38 | 129 | 16.0 | 17.0 | 0.00 | 0.00 | 0.00 | 99 | 1018.6 |
| 20260507100340 | 38 | 84 | 19.0 | 21.0 | 0.00 | 0.00 | 0.00 | 99 | 1018.6 |
| 20260507095838 | 38 | 84 | 19.0 | 21.0 | 0.00 | 0.00 | 0.00 | 99 | 1018.6 |
| 20260507095334 | 38 | 103 | 18.0 | 21.0 | 0.00 | 0.00 | 0.00 | 99 | 1018.2 |
| 20260507094831 | 38 | 103 | 18.0 | 21.0 | 0.00 | 0.00 | 0.00 | 99 | 1018.2 |
| 20260507093745 | 38 | 152 | 15.0 | 18.0 | 0.00 | 0.00 | 0.00 | 99 | 1018.4 |
| 20260507093243 | 38 | 152 | 15.0 | 18.0 | 0.00 | 0.00 | 0.00 | 99 | 1018.4 |
| 20260507092741 | 37 | 147 | 14.0 | 16.0 | 0.00 | 0.00 | 0.00 | 99 | 1018.4 |
| 20260507092236 | 37 | 147 | 14.0 | 16.0 | 0.00 | 0.00 | 0.00 | 99 | 1018.4 |
| 20260507091733 | 38 | 126 | 19.0 | 21.0 | 0.00 | 0.00 | 0.00 | 99 | 1018.4 |
| 20260507091230 | 38 | 126 | 19.0 | 21.0 | 0.00 | 0.00 | 0.00 | 99 | 1018.4 |
| 20260507090725 | 37 | 77 | 19.0 | 22.0 | 0.00 | 0.00 | 0.00 | 99 | 1018.3 |
| 20260507090222 | 37 | 77 | 19.0 | 22.0 | 0.00 | 0.00 | 0.00 | 99 | 1018.3 |
| 20260507085719 | 37 | 123 | 15.0 | 21.0 | 0.00 | 0.00 | 0.00 | 99 | 1018.7 |
| 20260507085216 | 37 | 123 | 15.0 | 21.0 | 0.00 | 0.00 | 0.00 | 99 | 1018.7 |
| 20260507084713 | 37 | 104 | 17.0 | 19.0 | 0.00 | 0.00 | 0.00 | 99 | 1018.4 |
| 20260507084209 | 37 | 104 | 17.0 | 19.0 | 0.00 | 0.00 | 0.00 | 99 | 1018.4 |
| 20260507083707 | 38 | 88 | 17.0 | 21.0 | 0.00 | 0.00 | 0.00 | 99 | 1018.2 |
| 20260507083203 | 38 | 88 | 17.0 | 21.0 | 0.00 | 0.00 | 0.00 | 99 | 1018.2 |
| 20260507082659 | 37 | 92 | 19.0 | 21.0 | 0.00 | 0.00 | 0.00 | 99 | 1018.3 |
| 20260507082155 | 37 | 92 | 19.0 | 21.0 | 0.00 | 0.00 | 0.00 | 99 | 1018.3 |
| 20260507081652 | 37 | 87 | 20.0 | 23.0 | 0.00 | 0.00 | 0.00 | 99 | 1018.6 |
| 20260507081148 | 37 | 87 | 20.0 | 23.0 | 0.00 | 0.00 | 0.00 | 99 | 1018.6 |
| 20260507080645 | 37 | 96 | 19.0 | 22.0 | 0.00 | 0.00 | 0.00 | 99 | 1018.3 |
| 20260507080142 | 37 | 96 | 19.0 | 22.0 | 0.00 | 0.00 | 0.00 | 99 | 1018.3 |
| 20260507075642 | 37 | 100 | 21.0 | 23.0 | 0.00 | 0.00 | 0.00 | 99 | 1018.4 |
| 20260507075139 | 37 | 100 | 21.0 | 23.0 | 0.00 | 0.00 | 0.00 | 99 | 1018.4 |
| 20260507074636 | 37 | 88 | 19.0 | 25.0 | 0.00 | 0.00 | 0.00 | 99 | 1018.4 |
| 20260507074134 | 37 | 88 | 19.0 | 25.0 | 0.00 | 0.00 | 0.00 | 99 | 1018.4 |
| 20260507073630 | 37 | 101 | 17.0 | 21.0 | 0.00 | 0.00 | 0.00 | 99 | 1018.8 |
| 20260507073126 | 37 | 101 | 17.0 | 21.0 | 0.00 | 0.00 | 0.00 | 99 | 1018.8 |
| 20260507072624 | 36 | 77 | 22.0 | 25.0 | 0.00 | 0.00 | 0.00 | 99 | 1018.6 |
| 20260507072121 | 36 | 77 | 22.0 | 25.0 | 0.00 | 0.00 | 0.00 | 99 | 1018.6 |
| 20260507071619 | 37 | 111 | 19.0 | 22.0 | 0.00 | 0.00 | 0.00 | 99 | 1018.6 |
| 20260507071115 | 37 | 111 | 19.0 | 22.0 | 0.00 | 0.00 | 0.00 | 99 | 1018.6 |
| 20260507070612 | 36 | 112 | 23.0 | 29.0 | 0.00 | 0.00 | 0.00 | 99 | 1018.4 |
| 20260507070109 | 36 | 112 | 23.0 | 29.0 | 0.00 | 0.00 | 0.00 | 99 | 1018.4 |
| 20260507065605 | 36 | 96 | 24.0 | 29.0 | 0.00 | 0.00 | 0.00 | 99 | 1018.7 |
| 20260507065103 | 36 | 96 | 24.0 | 29.0 | 0.00 | 0.00 | 0.00 | 99 | 1018.7 |
| 20260507064600 | 37 | 94 | 23.0 | 24.0 | 0.00 | 0.00 | 0.00 | 99 | 1018.9 |
| 20260507064059 | 37 | 94 | 23.0 | 24.0 | 0.00 | 0.00 | 0.00 | 99 | 1018.9 |
| 20260507063556 | 36 | 127 | 20.0 | 23.0 | 0.00 | 0.00 | 0.00 | 99 | 1019.2 |
| 20260507063053 | 36 | 127 | 20.0 | 23.0 | 0.00 | 0.00 | 0.00 | 99 | 1019.2 |
| 20260507062549 | 36 | 82 | 17.0 | 19.0 | 0.00 | 0.00 | 0.00 | 99 | 1019.1 |
| 20260507062047 | 36 | 82 | 17.0 | 19.0 | 0.00 | 0.00 | 0.00 | 99 | 1019.1 |
| 20260507061544 | 37 | 92 | 13.0 | 16.0 | 0.00 | 0.00 | 0.00 | 99 | 1019.6 |
| 20260507061042 | 37 | 92 | 13.0 | 16.0 | 0.00 | 0.00 | 0.00 | 99 | 1019.6 |
| 20260507060540 | 36 | 97 | 20.0 | 22.0 | 0.00 | 0.21 | 0.21 | 99 | 1019.6 |
| 20260507060037 | 36 | 97 | 20.0 | 22.0 | 0.00 | 0.21 | 0.21 | 99 | 1019.6 |
| 20260507055531 | 36 | 98 | 19.0 | 22.0 | 0.00 | 0.21 | 0.21 | 99 | 1019.4 |
| 20260507055028 | 36 | 98 | 19.0 | 22.0 | 0.00 | 0.21 | 0.21 | 99 | 1019.4 |
| 20260507054524 | 37 | 95 | 16.0 | 21.0 | 0.00 | 0.21 | 0.21 | 99 | 1019.3 |
| 20260507054021 | 37 | 95 | 16.0 | 21.0 | 0.00 | 0.21 | 0.21 | 99 | 1019.3 |
| 20260507053519 | 37 | 80 | 25.0 | 30.0 | 0.00 | 0.21 | 0.21 | 99 | 1018.9 |
| 20260507053018 | 37 | 80 | 25.0 | 30.0 | 0.00 | 0.21 | 0.21 | 99 | 1018.9 |
| 20260507052515 | 37 | 84 | 26.0 | 30.0 | 0.00 | 0.21 | 0.21 | 99 | 1018.9 |
| 20260507052012 | 37 | 84 | 26.0 | 30.0 | 0.00 | 0.21 | 0.21 | 99 | 1018.9 |
| 20260507051509 | 36 | 67 | 20.0 | 24.0 | 0.00 | 0.21 | 0.21 | 99 | 1018.9 |
| 20260507051006 | 36 | 67 | 20.0 | 24.0 | 0.00 | 0.21 | 0.21 | 99 | 1018.9 |
| 20260507050502 | 36 | 81 | 16.0 | 19.0 | 0.00 | 0.21 | 0.21 | 99 | 1019.2 |
| 20260507045959 | 36 | 81 | 16.0 | 19.0 | 0.00 | 0.21 | 0.21 | 99 | 1019.2 |
| 20260507045455 | 36 | 63 | 18.0 | 22.0 | 0.00 | 0.21 | 0.21 | 99 | 1019.1 |
| 20260507044953 | 36 | 63 | 18.0 | 22.0 | 0.00 | 0.21 | 0.21 | 99 | 1019.1 |
| 20260507044450 | 35 | 107 | 18.0 | 22.0 | 0.00 | 0.21 | 0.21 | 99 | 1019.2 |
| 20260507043946 | 35 | 107 | 18.0 | 22.0 | 0.00 | 0.21 | 0.21 | 99 | 1019.2 |
| 20260507043442 | 36 | 124 | 18.0 | 22.0 | 0.00 | 0.21 | 0.21 | 99 | 1018.9 |
| 20260507042938 | 36 | 124 | 18.0 | 22.0 | 0.00 | 0.21 | 0.21 | 99 | 1018.9 |
| 20260507042435 | 35 | 119 | 21.0 | 26.0 | 0.00 | 0.21 | 0.21 | 99 | 1018.6 |
| 20260507041931 | 35 | 119 | 21.0 | 26.0 | 0.00 | 0.21 | 0.21 | 99 | 1018.6 |
| 20260507041428 | 35 | 138 | 21.0 | 26.0 | 0.00 | 0.21 | 0.21 | 99 | 1018.8 |
| 20260507040926 | 35 | 138 | 21.0 | 26.0 | 0.00 | 0.21 | 0.21 | 99 | 1018.8 |
| 20260507040421 | 35 | 104 | 20.0 | 27.0 | 0.00 | 0.21 | 0.21 | 99 | 1018.7 |
| 20260507035917 | 35 | 104 | 20.0 | 27.0 | 0.00 | 0.21 | 0.21 | 99 | 1018.7 |
| 20260507035414 | 36 | 87 | 12.0 | 15.0 | 0.00 | 0.21 | 0.21 | 99 | 1019.1 |
| 20260507034911 | 36 | 87 | 12.0 | 15.0 | 0.00 | 0.21 | 0.21 | 99 | 1019.1 |
| 20260507034408 | 36 | 133 | 16.0 | 22.0 | 0.00 | 0.21 | 0.21 | 99 | 1018.9 |
| 20260507033906 | 36 | 133 | 16.0 | 22.0 | 0.00 | 0.21 | 0.21 | 99 | 1018.9 |
| 20260507033403 | 34 | 134 | 23.0 | 25.0 | 0.00 | 0.21 | 0.21 | 99 | 1018.4 |
| 20260507032900 | 34 | 134 | 23.0 | 25.0 | 0.00 | 0.21 | 0.21 | 99 | 1018.4 |
| 20260507032357 | 32 | 111 | 9.0 | 10.0 | 0.00 | 0.21 | 0.21 | 99 | 1018.8 |
| 20260507031853 | 32 | 111 | 9.0 | 10.0 | 0.00 | 0.21 | 0.21 | 99 | 1018.8 |
| 20260507031350 | 32 | 155 | 11.0 | 13.0 | 0.00 | 0.21 | 0.21 | 99 | 1018.8 |
| 20260507030846 | 32 | 155 | 11.0 | 13.0 | 0.00 | 0.21 | 0.21 | 99 | 1018.8 |
| 20260507030344 | 31 | 120 | 11.0 | 14.0 | 0.00 | 0.21 | 0.21 | 99 | 1018.8 |
| 20260507025840 | 31 | 120 | 11.0 | 14.0 | 0.00 | 0.21 | 0.21 | 99 | 1018.8 |
| 20260507025338 | 31 | 91 | 11.0 | 13.0 | 0.00 | 0.21 | 0.21 | 99 | 1018.9 |
| 20260507024836 | 31 | 91 | 11.0 | 13.0 | 0.00 | 0.21 | 0.21 | 99 | 1018.9 |
| 20260507024333 | 30 | 79 | 7.0 | 8.0 | 0.00 | 0.21 | 0.21 | 99 | 1019.2 |
| 20260507023828 | 30 | 79 | 7.0 | 8.0 | 0.00 | 0.21 | 0.21 | 99 | 1019.2 |
| 20260507023325 | 30 | 156 | 9.0 | 11.0 | 0.00 | 0.21 | 0.21 | 99 | 1018.9 |
| 20260507022822 | 30 | 156 | 9.0 | 11.0 | 0.00 | 0.21 | 0.21 | 99 | 1018.9 |
| 20260507022319 | 30 | 66 | 1.0 | 1.0 | 0.00 | 0.21 | 0.21 | 99 | 1018.9 |
| 20260507021815 | 30 | 66 | 1.0 | 1.0 | 0.00 | 0.21 | 0.21 | 99 | 1018.9 |
| 20260507021311 | 29 | 81 | 2.0 | 2.0 | 0.00 | 0.21 | 0.21 | 99 | 1018.9 |
| 20260507020809 | 29 | 81 | 2.0 | 2.0 | 0.00 | 0.21 | 0.21 | 99 | 1018.9 |
| 20260507020305 | 28 | 218 | 1.0 | 1.0 | 0.00 | 0.21 | 0.21 | 99 | 1018.6 |
| 20260507015802 | 28 | 218 | 1.0 | 1.0 | 0.00 | 0.21 | 0.21 | 99 | 1018.6 |
| 20260507015300 | 29 | 85 | 1.0 | 1.0 | 0.00 | 0.21 | 0.21 | 99 | 1018.8 |
| 20260507014757 | 29 | 85 | 1.0 | 1.0 | 0.00 | 0.21 | 0.21 | 99 | 1018.8 |
| 20260507014253 | 31 | 129 | 0.0 | 0.0 | 0.00 | 0.21 | 0.21 | 99 | 1018.8 |
| 20260507013749 | 31 | 129 | 0.0 | 0.0 | 0.00 | 0.21 | 0.21 | 99 | 1018.8 |
| 20260507013247 | 31 | 146 | 0.0 | 0.0 | 0.00 | 0.21 | 0.21 | 99 | 1018.9 |
| 20260507012744 | 31 | 146 | 0.0 | 0.0 | 0.00 | 0.21 | 0.21 | 99 | 1018.9 |
| 20260507012239 | 30 | 149 | 0.0 | 0.0 | 0.00 | 0.21 | 0.21 | 99 | 1018.8 |
| 20260507011737 | 30 | 149 | 0.0 | 0.0 | 0.00 | 0.21 | 0.21 | 99 | 1018.8 |
| 20260507011233 | 30 | 146 | 0.0 | 0.0 | 0.00 | 0.21 | 0.21 | 99 | 1018.8 |
| 20260507010733 | 30 | 178 | 1.0 | 1.0 | 0.00 | 0.21 | 0.21 | 99 | 1018.9 |
| 20260507010229 | 30 | 178 | 1.0 | 1.0 | 0.00 | 0.21 | 0.21 | 99 | 1018.9 |
| 20260507005727 | 30 | 231 | 2.0 | 2.0 | 0.00 | 0.21 | 0.21 | 99 | 1018.8 |
| 20260507005223 | 30 | 231 | 2.0 | 2.0 | 0.00 | 0.21 | 0.21 | 99 | 1018.8 |
| 20260507004719 | 30 | 253 | 2.0 | 3.0 | 0.00 | 0.21 | 0.21 | 99 | 1018.8 |
| 20260507004218 | 30 | 253 | 2.0 | 3.0 | 0.00 | 0.21 | 0.21 | 99 | 1018.8 |
| 20260507003713 | 32 | 168 | 2.0 | 3.0 | 0.00 | 0.21 | 0.21 | 99 | 1018.8 |
| 20260507003214 | 32 | 168 | 2.0 | 3.0 | 0.00 | 0.21 | 0.21 | 99 | 1018.8 |
| 20260507002710 | 32 | 166 | 0.0 | 1.0 | 0.00 | 0.21 | 0.21 | 99 | 1018.7 |
| 20260507002206 | 32 | 166 | 0.0 | 1.0 | 0.00 | 0.21 | 0.21 | 99 | 1018.7 |
| 20260507001703 | 32 | 205 | 2.0 | 2.0 | 0.00 | 0.21 | 0.21 | 99 | 1018.8 |
| 20260507001200 | 32 | 205 | 2.0 | 2.0 | 0.00 | 0.21 | 0.21 | 99 | 1018.8 |
| 20260507000656 | 32 | 170 | 2.0 | 2.0 | 0.00 | 0.21 | 0.21 | 99 | 1018.7 |
| 20260507000152 | 32 | 170 | 2.0 | 2.0 | 0.00 | 0.21 | 0.21 | 99 | 1018.7 |
| 20260506235650 | 32 | 145 | 1.0 | 1.0 | 0.00 | 0.21 | 0.21 | 99 | 1018.9 |
| 20260506235145 | 32 | 145 | 1.0 | 1.0 | 0.00 | 0.21 | 0.21 | 99 | 1018.9 |
| 20260506234642 | 32 | 178 | 1.0 | 1.0 | 0.00 | 0.21 | 0.21 | 99 | 1018.9 |
| 20260506234139 | 32 | 178 | 1.0 | 1.0 | 0.00 | 0.21 | 0.21 | 99 | 1018.9 |
| 20260506233636 | 33 | 184 | 1.0 | 2.0 | 0.00 | 0.21 | 0.21 | 99 | 1019.1 |
| 20260506233133 | 33 | 184 | 1.0 | 2.0 | 0.00 | 0.21 | 0.21 | 99 | 1019.1 |
| 20260506232629 | 33 | 220 | 1.0 | 1.0 | 0.00 | 0.21 | 0.21 | 99 | 1019.1 |
| 20260506232125 | 33 | 220 | 1.0 | 1.0 | 0.00 | 0.21 | 0.21 | 99 | 1019.1 |
| 20260506231622 | 33 | 135 | 1.0 | 1.0 | 0.00 | 0.21 | 0.21 | 99 | 1019.1 |
| 20260506231120 | 33 | 135 | 1.0 | 1.0 | 0.00 | 0.21 | 0.21 | 99 | 1019.1 |
| 20260506230617 | 33 | 124 | 0.0 | 0.0 | 0.00 | 0.21 | 0.21 | 99 | 1018.7 |
| 20260506230114 | 33 | 124 | 0.0 | 0.0 | 0.00 | 0.21 | 0.21 | 99 | 1018.7 |
| 20260506225610 | 33 | 96 | 0.0 | 0.0 | 0.00 | 0.21 | 0.21 | 99 | 1018.8 |
| 20260506225107 | 33 | 96 | 0.0 | 0.0 | 0.00 | 0.21 | 0.21 | 99 | 1018.8 |
| 20260506224604 | 33 | 186 | 0.0 | 1.0 | 0.00 | 0.21 | 0.21 | 99 | 1018.8 |
| 20260506224100 | 33 | 186 | 0.0 | 1.0 | 0.00 | 0.21 | 0.21 | 99 | 1018.8 |
| 20260506223556 | 32 | 192 | 1.0 | 1.0 | 0.00 | 0.21 | 0.21 | 99 | 1018.9 |
| 20260506223053 | 32 | 192 | 1.0 | 1.0 | 0.00 | 0.21 | 0.21 | 99 | 1018.9 |
| 20260506222550 | 32 | 161 | 2.0 | 2.0 | 0.00 | 0.21 | 0.21 | 99 | 1018.9 |
| 20260506222046 | 32 | 161 | 2.0 | 2.0 | 0.00 | 0.21 | 0.21 | 99 | 1018.9 |
| 20260506221544 | 32 | 177 | 0.0 | 1.0 | 0.00 | 0.21 | 0.21 | 99 | 1018.9 |
| 20260506221042 | 32 | 177 | 0.0 | 1.0 | 0.00 | 0.21 | 0.21 | 99 | 1018.9 |
| 20260506220537 | 32 | 218 | 2.0 | 2.0 | 0.00 | 0.21 | 0.21 | 99 | 1019.1 |
| 20260506220033 | 32 | 218 | 2.0 | 2.0 | 0.00 | 0.21 | 0.21 | 99 | 1019.1 |
| 20260506215530 | 32 | 261 | 1.0 | 1.0 | 0.00 | 0.21 | 0.21 | 99 | 1019.1 |
| 20260506215026 | 32 | 261 | 1.0 | 1.0 | 0.00 | 0.21 | 0.21 | 99 | 1019.1 |
| 20260506214523 | 31 | 19 | 2.0 | 2.0 | 0.00 | 0.21 | 0.21 | 99 | 1019.2 |
| 20260506214020 | 31 | 19 | 2.0 | 2.0 | 0.00 | 0.21 | 0.21 | 99 | 1019.2 |
| 20260506213518 | 32 | 283 | 4.0 | 4.0 | 0.00 | 0.21 | 0.21 | 99 | 1019.6 |
| 20260506213015 | 32 | 283 | 4.0 | 4.0 | 0.00 | 0.21 | 0.21 | 99 | 1019.6 |
| 20260506212511 | 32 | 15 | 2.0 | 2.0 | 0.00 | 0.21 | 0.21 | 99 | 1019.6 |
| 20260506212007 | 32 | 15 | 2.0 | 2.0 | 0.00 | 0.21 | 0.21 | 99 | 1019.6 |
| 20260506211503 | 32 | 135 | 1.0 | 1.0 | 0.00 | 0.21 | 0.21 | 99 | 1019.6 |
| 20260506211000 | 32 | 135 | 1.0 | 1.0 | 0.00 | 0.21 | 0.21 | 99 | 1019.6 |
| 20260506210456 | 31 | 60 | 2.0 | 2.0 | 0.00 | 0.21 | 0.21 | 99 | 1019.7 |
| 20260506205953 | 31 | 60 | 2.0 | 2.0 | 0.00 | 0.21 | 0.21 | 99 | 1019.7 |
| 20260506205449 | 31 | 268 | 3.0 | 3.0 | 0.00 | 0.21 | 0.21 | 99 | 1019.9 |
| 20260506204945 | 31 | 268 | 3.0 | 3.0 | 0.00 | 0.21 | 0.21 | 99 | 1019.9 |
| 20260506204443 | 30 | 340 | 1.0 | 2.0 | 0.00 | 0.21 | 0.21 | 99 | 1019.7 |
| 20260506203941 | 30 | 340 | 1.0 | 2.0 | 0.00 | 0.21 | 0.21 | 99 | 1019.7 |
| 20260506203438 | 29 | 257 | 4.0 | 4.0 | 0.12 | 0.21 | 0.21 | 99 | 1019.9 |
| 20260506202935 | 29 | 257 | 4.0 | 4.0 | 0.12 | 0.21 | 0.21 | 99 | 1019.9 |
| 20260506202432 | 29 | 277 | 6.0 | 7.0 | 0.05 | 0.19 | 0.19 | 99 | 1019.8 |
| 20260506201928 | 29 | 277 | 6.0 | 7.0 | 0.05 | 0.19 | 0.19 | 99 | 1019.8 |
| 20260506201426 | 29 | 266 | 4.0 | 6.0 | 0.07 | 0.18 | 0.18 | 99 | 1020.2 |
| 20260506200922 | 29 | 266 | 4.0 | 6.0 | 0.07 | 0.18 | 0.18 | 99 | 1020.2 |
| 20260506200418 | 28 | 259 | 5.0 | 6.0 | 0.12 | 0.17 | 0.17 | 99 | 1020.3 |
| 20260506195915 | 28 | 259 | 5.0 | 6.0 | 0.12 | 0.17 | 0.17 | 99 | 1020.3 |
| 20260506195412 | 29 | 329 | 3.0 | 3.0 | 0.07 | 0.15 | 0.15 | 99 | 1020.2 |
| 20260506194909 | 29 | 329 | 3.0 | 3.0 | 0.07 | 0.15 | 0.15 | 99 | 1020.2 |
| 20260506194406 | 32 | 280 | 4.0 | 4.0 | 0.05 | 0.14 | 0.14 | 99 | 1020.2 |
| 20260506193903 | 32 | 280 | 4.0 | 4.0 | 0.05 | 0.14 | 0.14 | 99 | 1020.2 |
| 20260506193400 | 32 | 258 | 1.0 | 2.0 | 0.12 | 0.13 | 0.13 | 99 | 1020.2 |
| 20260506192856 | 32 | 258 | 1.0 | 2.0 | 0.12 | 0.13 | 0.13 | 99 | 1020.2 |
| 20260506192353 | 32 | 261 | 2.0 | 2.0 | 0.12 | 0.11 | 0.11 | 99 | 1020.4 |
| 20260506191850 | 32 | 261 | 2.0 | 2.0 | 0.12 | 0.11 | 0.11 | 99 | 1020.4 |
| 20260506191346 | 31 | 232 | 2.0 | 3.0 | 0.12 | 0.09 | 0.09 | 99 | 1020.3 |
| 20260506190843 | 31 | 232 | 2.0 | 3.0 | 0.12 | 0.09 | 0.09 | 99 | 1020.3 |
| 20260506190339 | 30 | 234 | 2.0 | 2.0 | 0.12 | 0.07 | 0.07 | 99 | 1020.3 |
| 20260506185837 | 30 | 234 | 2.0 | 2.0 | 0.12 | 0.07 | 0.07 | 99 | 1020.3 |
| 20260506185334 | 30 | 259 | 3.0 | 3.0 | 0.19 | 0.05 | 0.05 | 99 | 1020.6 |
| 20260506184831 | 30 | 259 | 3.0 | 3.0 | 0.19 | 0.05 | 0.05 | 99 | 1020.6 |
| 20260506184328 | 28 | 94 | 1.0 | 1.0 | 0.07 | 0.02 | 0.02 | 99 | 1020.3 |
| 20260506183825 | 28 | 94 | 1.0 | 1.0 | 0.07 | 0.02 | 0.02 | 99 | 1020.3 |
| 20260506183320 | 29 | 354 | 2.0 | 2.0 | 0.07 | 0.02 | 0.02 | 99 | 1020.7 |
| 20260506182818 | 29 | 354 | 2.0 | 2.0 | 0.07 | 0.02 | 0.02 | 99 | 1020.7 |
| 20260506182315 | 31 | 242 | 2.0 | 3.0 | 0.00 | 0.01 | 0.01 | 99 | 1020.7 |
| 20260506181813 | 31 | 242 | 2.0 | 3.0 | 0.00 | 0.01 | 0.01 | 99 | 1020.7 |
| 20260506181310 | 31 | 280 | 4.0 | 4.0 | 0.00 | 0.01 | 0.01 | 99 | 1021.1 |
| 20260506180807 | 31 | 280 | 4.0 | 4.0 | 0.00 | 0.01 | 0.01 | 99 | 1021.1 |
| 20260506180303 | 29 | 282 | 1.0 | 2.0 | 0.05 | 0.01 | 0.01 | 99 | 1020.8 |
| 20260506175759 | 29 | 282 | 1.0 | 2.0 | 0.05 | 0.01 | 0.01 | 99 | 1020.8 |
| 20260506175256 | 27 | 280 | 2.0 | 2.0 | 0.00 | 0.00 | 0.00 | 99 | 1020.7 |
| 20260506174754 | 27 | 280 | 2.0 | 2.0 | 0.00 | 0.00 | 0.00 | 99 | 1020.7 |
| 20260506174251 | 28 | 230 | 5.0 | 7.0 | 0.00 | 0.00 | 0.00 | 99 | 1020.7 |
| 20260506173749 | 28 | 230 | 5.0 | 7.0 | 0.00 | 0.00 | 0.00 | 99 | 1020.7 |
| 20260506173245 | 28 | 219 | 3.0 | 3.0 | 0.00 | 0.00 | 0.00 | 99 | 1020.6 |
| 20260506172742 | 28 | 219 | 3.0 | 3.0 | 0.00 | 0.00 | 0.00 | 99 | 1020.6 |
| 20260506172238 | 26 | 242 | 4.0 | 6.0 | 0.00 | 0.00 | 0.00 | 99 | 1020.4 |
| 20260506171736 | 26 | 242 | 4.0 | 6.0 | 0.00 | 0.00 | 0.00 | 99 | 1020.4 |
| 20260506171233 | 27 | 213 | 5.0 | 7.0 | 0.00 | 0.00 | 0.00 | 99 | 1020.6 |
| 20260506170731 | 27 | 213 | 5.0 | 7.0 | 0.00 | 0.00 | 0.00 | 99 | 1020.6 |
| 20260506170222 | 28 | 197 | 2.0 | 2.0 | 0.00 | 0.00 | 0.00 | 99 | 1020.7 |
| 20260506165720 | 28 | 197 | 2.0 | 2.0 | 0.00 | 0.00 | 0.00 | 99 | 1020.7 |
| 20260506165217 | 31 | 244 | 2.0 | 3.0 | 0.00 | 0.00 | 0.00 | 99 | 1020.4 |
| 20260506164715 | 31 | 244 | 2.0 | 3.0 | 0.00 | 0.00 | 0.00 | 99 | 1020.4 |
| 20260506164211 | 32 | 252 | 1.0 | 2.0 | 0.00 | 0.00 | 0.00 | 99 | 1020.3 |
| 20260506163708 | 32 | 252 | 1.0 | 2.0 | 0.00 | 0.00 | 0.00 | 99 | 1020.3 |
| 20260506163203 | 32 | 207 | 1.0 | 1.0 | 0.00 | 0.00 | 0.00 | 99 | 1020.1 |
| 20260506162659 | 32 | 207 | 1.0 | 1.0 | 0.00 | 0.00 | 0.00 | 99 | 1020.1 |
| 20260506162157 | 32 | 212 | 2.0 | 2.0 | 0.00 | 0.00 | 0.00 | 99 | 1020.2 |
| 20260506161654 | 32 | 212 | 2.0 | 2.0 | 0.00 | 0.00 | 0.00 | 99 | 1020.2 |
| 20260506161150 | 32 | 222 | 2.0 | 3.0 | 0.00 | 0.00 | 0.00 | 99 | 1020.2 |
| 20260506160648 | 32 | 222 | 2.0 | 3.0 | 0.00 | 0.00 | 0.00 | 99 | 1020.2 |
| 20260506160145 | 32 | 205 | 0.0 | 0.0 | 0.00 | 0.00 | 0.00 | 99 | 1020.1 |
| 20260506155643 | 32 | 205 | 0.0 | 0.0 | 0.00 | 0.00 | 0.00 | 99 | 1020.1 |
| 20260506153703 | 32 | 150 | 0.0 | 0.0 | 0.00 | 0.00 | 0.00 | 99 | 1019.9 |
| 20260506153200 | 32 | 150 | 0.0 | 0.0 | 0.00 | 0.00 | 0.00 | 99 | 1019.9 |
| 20260506152657 | 32 | 150 | 0.0 | 0.0 | 0.00 | 0.00 | 0.00 | 99 | 1019.9 |
| 20260506152154 | 32 | 207 | 1.0 | 1.0 | 0.00 | 0.00 | 0.00 | 99 | 1019.9 |
| 20260506151653 | 32 | 207 | 1.0 | 1.0 | 0.00 | 0.00 | 0.00 | 99 | 1019.9 |
| 20260506151149 | 31 | 165 | 1.0 | 1.0 | 0.00 | 0.00 | 0.00 | 99 | 1019.8 |
| 20260506150646 | 31 | 165 | 1.0 | 1.0 | 0.00 | 0.00 | 0.00 | 99 | 1019.8 |
| 20260506150143 | 30 | 193 | 1.0 | 1.0 | 0.00 | 0.00 | 0.00 | 99 | 1019.7 |
| 20260506145640 | 30 | 193 | 1.0 | 1.0 | 0.00 | 0.00 | 0.00 | 99 | 1019.7 |
| 20260506145137 | 29 | 254 | 2.0 | 2.0 | 0.00 | 0.00 | 0.00 | 99 | 1019.6 |
| 20260506144635 | 29 | 254 | 2.0 | 2.0 | 0.00 | 0.00 | 0.00 | 99 | 1019.6 |
| 20260506143624 | 27 | 226 | 1.0 | 1.0 | 0.00 | 0.00 | 0.00 | 99 | 1019.8 |
| 20260506143121 | 27 | 226 | 1.0 | 1.0 | 0.00 | 0.00 | 0.00 | 99 | 1019.8 |
| 20260506142620 | 27 | 225 | 1.0 | 2.0 | 0.00 | 0.00 | 0.00 | 99 | 1019.8 |
| 20260506142118 | 27 | 225 | 1.0 | 2.0 | 0.00 | 0.00 | 0.00 | 99 | 1019.8 |
| 20260506141615 | 25 | 225 | 1.0 | 2.0 | 0.00 | 0.00 | 0.00 | 99 | 1019.7 |
| 20260506141113 | 25 | 225 | 1.0 | 2.0 | 0.00 | 0.00 | 0.00 | 99 | 1019.7 |
| 20260506140610 | 23 | 225 | 2.0 | 2.0 | 0.00 | 0.00 | 0.00 | 99 | 1019.4 |
| 20260506140107 | 23 | 225 | 2.0 | 2.0 | 0.00 | 0.00 | 0.00 | 99 | 1019.4 |
| 20260506135604 | 23 | 225 | 1.0 | 2.0 | 0.00 | 0.00 | 0.00 | 99 | 1019.3 |
| 20260506135100 | 23 | 225 | 1.0 | 2.0 | 0.00 | 0.00 | 0.00 | 99 | 1019.3 |
| 20260506134557 | 23 | 225 | 2.0 | 2.0 | 0.00 | 0.00 | 0.00 | 99 | 1019.6 |
| 20260506134053 | 23 | 225 | 2.0 | 2.0 | 0.00 | 0.00 | 0.00 | 99 | 1019.6 |
| 20260506133550 | 23 | 225 | 3.0 | 3.0 | 0.00 | 0.00 | 0.00 | 99 | 1019.1 |
| 20260506133047 | 23 | 225 | 3.0 | 3.0 | 0.00 | 0.00 | 0.00 | 99 | 1019.1 |
| 20260506132544 | 23 | 225 | 2.0 | 3.0 | 0.00 | 0.00 | 0.00 | 99 | 1018.9 |
| 20260506132042 | 23 | 225 | 2.0 | 3.0 | 0.00 | 0.00 | 0.00 | 99 | 1018.9 |
| 20260506131538 | 23 | 225 | 4.0 | 4.0 | 0.00 | 0.00 | 0.00 | 99 | 1018.8 |
| 20260506131035 | 23 | 225 | 4.0 | 4.0 | 0.00 | 0.00 | 0.00 | 99 | 1018.8 |
| 20260506130532 | 22 | 225 | 5.0 | 6.0 | 0.00 | 0.00 | 0.00 | 99 | 1018.6 |
| 20260506130029 | 22 | 225 | 5.0 | 6.0 | 0.00 | 0.00 | 0.00 | 99 | 1018.6 |
| 20260506125527 | 23 | 225 | 4.0 | 4.0 | 0.00 | 0.00 | 0.00 | 99 | 1018.3 |
| 20260506125025 | 23 | 225 | 4.0 | 4.0 | 0.00 | 0.00 | 0.00 | 99 | 1018.3 |
| 20260506124523 | 22 | 225 | 3.0 | 4.0 | 0.00 | 0.00 | 0.00 | 99 | 1018.3 |
| 20260506124020 | 22 | 225 | 3.0 | 4.0 | 0.00 | 0.00 | 0.00 | 99 | 1018.3 |
| 20260506123518 | 22 | 225 | 1.0 | 2.0 | 0.00 | 0.00 | 0.00 | 99 | 1018.4 |
| 20260506123016 | 22 | 225 | 1.0 | 2.0 | 0.00 | 0.00 | 0.00 | 99 | 1018.4 |
| 20260506122512 | 22 | 225 | 2.0 | 2.0 | 0.00 | 0.00 | 0.00 | 99 | 1017.9 |
| 20260506122011 | 22 | 225 | 2.0 | 2.0 | 0.00 | 0.00 | 0.00 | 99 | 1017.9 |
| 20260506121508 | 22 | 225 | 1.0 | 1.0 | 0.00 | 0.00 | 0.00 | 99 | 1018.3 |
| 20260506121004 | 22 | 225 | 1.0 | 1.0 | 0.00 | 0.00 | 0.00 | 99 | 1018.3 |
| 20260506120502 | 22 | 225 | 0.0 | 0.0 | 0.00 | 0.00 | 0.00 | 99 | 1018.1 |
| 20260506115959 | 22 | 225 | 0.0 | 0.0 | 0.00 | 0.00 | 0.00 | 99 | 1018.1 |
| 20260506115456 | 22 | 225 | 1.0 | 1.0 | 0.00 | 0.00 | 0.00 | 99 | 1017.9 |
| 20260506114955 | 22 | 225 | 1.0 | 1.0 | 0.00 | 0.00 | 0.00 | 99 | 1017.9 |
| 20260506114452 | 22 | 225 | 0.0 | 0.0 | 0.00 | 0.00 | 0.00 | 99 | 1018.1 |
| 20260506113950 | 22 | 225 | 0.0 | 0.0 | 0.00 | 0.00 | 0.00 | 99 | 1018.1 |
| 20260506113448 | 22 | 225 | 0.0 | 0.0 | 0.00 | 0.00 | 0.00 | 99 | 1018.1 |
| 20260506112944 | 22 | 225 | 0.0 | 0.0 | 0.00 | 0.00 | 0.00 | 99 | 1018.1 |
| 20260506112442 | 22 | 225 | 2.0 | 2.0 | 0.00 | 0.00 | 0.00 | 99 | 1017.8 |
| 20260506111939 | 22 | 225 | 2.0 | 2.0 | 0.00 | 0.00 | 0.00 | 99 | 1017.8 |
| 20260506111437 | 22 | 225 | 0.0 | 0.0 | 0.00 | 0.00 | 0.00 | 99 | 1017.6 |
| 20260506110934 | 22 | 225 | 0.0 | 0.0 | 0.00 | 0.00 | 0.00 | 99 | 1017.6 |
| 20260506110432 | 23 | 225 | 0.0 | 0.0 | 0.00 | 0.00 | 0.00 | 99 | 1017.7 |
| 20260506105928 | 23 | 225 | 0.0 | 0.0 | 0.00 | 0.00 | 0.00 | 99 | 1017.7 |
| 20260506105424 | 23 | 225 | 0.0 | 0.0 | 0.00 | 0.00 | 0.00 | 99 | 1017.7 |
| 20260506104922 | 23 | 225 | 0.0 | 0.0 | 0.00 | 0.00 | 0.00 | 99 | 1017.7 |
| 20260506104420 | 23 | 225 | 0.0 | 0.0 | 0.00 | 0.00 | 0.00 | 99 | 1017.6 |